Regional Weather Roundup
Issued by NWS Sterling, VA

Home | Current Version | Previous Version | Graphics & Text | Print | Product List | Glossary On
Versions: 1 2 3 4 5 6 7 8 9 10 11 12 13 14 15 16 17 18 19 20 21 22 23 24 25 26 27 28 29 30 31 32 33 34 35 36 37 38 39 40 41 42 43 44 45 46 47 48 49 50
000
ASUS41 KLWX 241710
RWRLWX

REGIONAL WEATHER ROUNDUP
NATIONAL WEATHER SERVICE BALTIMORE MD/WASHINGTON DC
100 PM EDT WED AUG 24 2016

Note: "FAIR" indicates few or no clouds below 12,000 feet
with no significant weather and/or obstructions to visibility.
 TC=TEMPERATURE CELSIUS

 * =Non NWS site. Station does not report precipitation (e.g. rain,
    snow, etc.), thunder, or fog.

DCZ001-MDZ009-015-VAZ040>042-051-053>054-241800-
WASHINGTON METRO

CITY           SKY/WX    TMP DP  RH WIND       PRES   REMARKS
WASHINGTON NAT PTSUNNY   83  64  52 S12       30.27F
DULLES         MOSUNNY   84  63  49 S13       30.26F
ANDREWS AFB    SUNNY     82  63  51 S10       30.26F
FT BELVOIR     SUNNY     82  63  52 VRB7      30.26F
QUANTICO       MOSUNNY   81  65  58 S12       30.27F
COLLEGE PARK*  SUNNY     82  61  47 S5        30.25F
LEESBURG*      SUNNY     86  68  54 S12G17    30.27F
GAITHERSBURG*  MOSUNNY   82  63  51 SW6       30.30F

$$

MDZ006>007-011-014-241800-
BALTIMORE METRO

CITY           SKY/WX    TMP DP  RH WIND       PRES   REMARKS
BWI AIRPORT    MOSUNNY   83  63  50 VRB5      30.25F
MD SCIENCE CTR   N/A     84  62  47 MISG      30.25F
MARTIN STATE   MOSUNNY   82  70  65 SE9       30.28F
ANNAPOLIS      SUNNY     82  65  56 SE9       30.26F
FORT MEADE*    SUNNY     81  63  54 SW8       30.28F

$$

MDZ012-015-019>023-241800-
MARYLAND EASTERN SHORE

CITY           SKY/WX    TMP DP  RH WIND       PRES   REMARKS
OCEAN CITY     SUNNY     80  60  50 SE6       30.29F
SALISBURY      SUNNY     82  57  42 CALM      30.27F
BAY BRIDGE AP* SUNNY     84  64  51 SE9       30.27F
CAMBRIDGE*     MOSUNNY   77  61  57 CALM      30.28S
EASTON*        MOSUNNY   82  66  57 SW7       30.31F

$$

MDZ017>025-241800-
SOUTHERN MARYLAND

CITY           SKY/WX    TMP DP  RH WIND       PRES   REMARKS
PATUXENT RIVER PTSUNNY   79  63  57 SE9       30.28F
ST INIGOES     SUNNY     80  64  58 SW8       30.28F
LEONARDTOWN*   PTSUNNY   79  61  53 S3        30.29F

$$

MDZ003>005-241800-
NORTH CENTRAL MARYLAND

CITY           SKY/WX    TMP DP  RH WIND       PRES   REMARKS
FREDERICK*     SUNNY     82  72  69 S6        30.28F
HAGERSTOWN APT MOSUNNY   83  63  50 S8        30.25F

$$

MDZ501>502-241800-
WESTERN MARYLAND

CITY           SKY/WX    TMP DP  RH WIND       PRES   REMARKS
OAKLAND*       MOSUNNY   73  61  64 W6        30.33F
CUMBERLAND*    SUNNY     82  64  54 SE5       30.27F

$$

VAZ025>031-241800-
SHENANDOAH VALLEY

CITY           SKY/WX    TMP DP  RH WIND       PRES   REMARKS
WINCHESTER*    SUNNY     82  64  54 S5        30.25F
FRONT ROYAL*   FAIR      82  68  61 NE3       30.24F
LURAY*         FAIR      82  64  54 S5        30.25F
NEW MARKET*    FAIR     N/A N/A N/A S6        30.24F
STAUNTON*      SUNNY     82  64  53 S8        30.29F
WAYNESBORO*    FAIR      81  62  52 S3        30.29F

$$

WVZ021-048>050-054>055-241800-
EASTERN WEST VIRGINIA PANHANDLE

CITY           SKY/WX    TMP DP  RH WIND       PRES   REMARKS
MARTINSBURG    SUNNY     81  66  60 SE7       30.24F
PETERSBURG*    MOSUNNY   86  66  50 CALM      30.23F

$$

VAZ036>039-050-241800-
CENTRAL FOOTHILLS

CITY           SKY/WX    TMP DP  RH WIND       PRES   REMARKS
CHARLOTTESVILL SUNNY     84  67  56 S12       30.27F
CULPEPER*      MOSUNNY   83  69  60 S7        30.27F
ORANGE*          N/A     82  66  57 CALM      30.29F
GORDONSVILLE*  FAIR      82  70  65 SW7       30.27F
WARRENTON*     FAIR      85  62  46 S8        30.26F

$$

VAZ055>057-241800-
NORTH AND CENTRAL PIEDMONT

CITY           SKY/WX    TMP DP  RH WIND       PRES   REMARKS
FREDERICKSBRG* SUNNY     83  66  57 S9        30.26F
STAFFORD*      SUNNY     83  62  50 S7        30.31F

$$

NCZ024-NYZ072-PAZ021-071-VAZ022-071-241800-
OTHER REGIONAL OBSERVATIONS

CITY           SKY/WX    TMP DP  RH WIND       PRES   REMARKS
NEW YORK CITY  SUNNY     85  58  39 VRB3      30.26F
PHILADELPHIA   MOSUNNY   84  61  45 W9        30.27F
PITTSBURGH     PTSUNNY   81  59  47 SW13      30.22F
ROANOKE        CLOUDY    80  67  64 CALM      30.31F
RICHMOND       MOSUNNY   83  60  45 SE6       30.28F
RALEIGH        PTSUNNY   82  61  48 CALM      30.29F

$$

ANZ530>537-241800-
MARINE OBSERVATIONS

STATION/POSITION TIME  TEMP    WIND        PRES
                       AIR SEA DIR/SP/G
                 (UTC) (F)     (DEG/KT/KT) (MB)
THOMAS PT LIGHT  1700   77 82  160/ 10/ 11 1026.2F
BALT KEY BRIDGE  1648   80     130/  5/  7 1024.6F
COVE POINT       1648   77     180/  9/ 10 1026.0F
LEWISETTA        1648   78 81   90/  6/  7 1025.3F
SOLOMONS ISLAND  1648   79 84   80/  4/  5   N/A
PINEY POINT      1648          160/  6/  8   N/A

$$




USA.gov is the U.S. government's official web portal to all federal, state and local government web resources and services.